sat.trackr.live / text

‹ back to catalog

STARLINK-34477

NORAD 64487 · 2025-133R

PAYLOAD ACTIVE UNKNOWN

§ Identity

Operator
Country
US
Launch date
2025-06-23
Launch site
AFETR
Launch vehicle
Mass (kg)
RCS (m²)

Purposes: comms

External: N2YO · Heavens-Above · Gunter

§ Orbital elements

Epoch: 2026-05-25T05:22:39.622944Z

Period
94.10 min
Inclination
53.1553°
Eccentricity
0.0001483
Mean motion
15.30210916 rev/d
Perigee alt
474.2 km
Apogee alt
476.2 km
Semi-major
6,853.3 km
B*
1.9329e-3
RAAN
121.4748°
Arg perigee
31.0390°
Mean anomaly
329.0698°
Rev number
5,289

§ Raw data

STARLINK-344771 64487U 25133R   26145.22406971  .00057352  00000+0  19329-2 0  99992 64487  53.1553 121.4748 0001483  31.0390 329.0698 15.30210916 52891

JSON: /api/v1/satellites/64487 · /tle

For live sub-satellite position, see the globe view (requires WebGL).

§ Visibility from observer

Set your observer location to see the next 7 days of passes ≥ 10°. The values pass through the URL so the page stays shareable.

No JS? Fill the form by hand. The geolocation button needs JavaScript.